Date String (YYYY-MM-DD hh:mm:ss) UTC,Instrument flags,Ambient pressure (hPa),Sample flow (lpm),Bypass flow (lpm),Sample temperature (°C),Ambient temperature (°C),ASC tube jacket temperature (°C),LED temperature (°C),Box temperature (°C),Sample RH (%),Span deviation,Mass concentration (μg/m³),Mass concentration (μg/m³),Mass concentration (μg/m³)
DateTimeUTC,F1_M11,P_M11,Q1_M11,Q2_M11,T1_M11,T2_M11,T3_M11,T4_M11,T5_M11,U1_M11,ZSPAN_M11,X0_M11,X2_M11,X1_M11
2022-06-19 11:00:00,,0823.9,5.01,0.00,29.5,27.4,00.0,38.4,31.3,23.1,0000.0,0009.12,0003.95,0002.41
2022-06-19 11:01:00,,0823.9,5.00,0.00,29.5,27.5,00.0,38.4,31.2,23.2,0000.0,0009.27,0003.98,0002.45
2022-06-19 11:02:00,,0823.9,5.00,0.00,29.5,27.7,00.0,38.4,31.3,23.2,0000.0,0009.21,0003.97,0002.44
2022-06-19 11:03:00,,0823.9,5.00,0.00,29.5,27.8,00.0,38.4,31.3,23.2,0000.0,0009.33,0004.00,0002.44
2022-06-19 11:04:00,,0823.8,5.00,0.00,29.5,27.9,00.0,38.4,31.3,23.3,0000.0,0009.67,0004.09,0002.46
2022-06-19 11:05:00,,0823.8,5.01,0.00,29.5,28.0,00.0,38.4,31.3,23.3,0000.0,0009.74,0004.14,0002.49
2022-06-19 11:06:00,,0823.8,5.00,0.00,29.5,28.1,00.0,38.4,31.4,23.2,0000.0,0009.80,0004.15,0002.49
2022-06-19 11:07:00,,0823.8,5.00,0.00,29.5,28.2,00.0,38.4,31.4,23.2,0000.0,0010.06,0004.26,0002.52
2022-06-19 11:08:00,,0823.8,5.01,0.00,29.5,28.3,00.0,38.4,31.4,23.2,0000.0,0010.00,0004.26,0002.54
2022-06-19 11:09:00,,0823.7,4.99,0.00,29.5,28.4,00.0,38.4,31.4,23.1,0000.0,0009.53,0004.21,0002.53
2022-06-19 11:10:00,,0823.7,5.00,0.00,29.6,28.5,00.0,38.4,31.5,23.1,0000.0,0010.01,0004.24,0002.52
2022-06-19 11:11:00,,0823.7,5.00,0.00,29.6,28.5,00.0,38.4,31.5,23.1,0000.0,0010.14,0004.27,0002.53
2022-06-19 11:12:00,,0823.7,5.00,0.00,29.6,28.6,00.0,38.4,31.5,23.0,0000.0,0010.00,0004.27,0002.54
2022-06-19 11:13:00,,0823.7,5.00,0.00,29.6,28.6,00.0,38.4,31.5,23.0,0000.0,0010.01,0004.29,0002.56
2022-06-19 11:14:00,,0823.7,5.01,0.00,29.6,28.7,00.0,38.4,31.6,23.0,0000.0,0010.07,0004.31,0002.57
2022-06-19 11:15:00,,0823.8,5.00,0.00,29.7,28.7,00.0,38.4,31.6,23.0,0000.0,0010.04,0004.31,0002.59
2022-06-19 11:16:00,,0823.8,5.00,0.00,29.7,28.7,00.0,38.5,31.6,22.9,0000.0,0010.26,0004.30,0002.57
2022-06-19 11:17:00,,0823.8,5.00,0.00,29.7,28.8,00.0,38.5,31.6,22.9,0000.0,0010.21,0004.29,0002.57
2022-06-19 11:18:00,,0823.8,5.01,0.00,29.7,28.8,00.0,38.5,31.7,22.8,0000.0,0010.08,0004.25,0002.57
2022-06-19 11:19:00,,0823.9,4.99,0.00,29.8,28.9,00.0,38.5,31.7,22.8,0000.0,0010.02,0004.22,0002.58
2022-06-19 11:20:00,,0823.9,5.00,0.00,29.8,28.9,00.0,38.5,31.7,22.8,0000.0,0009.94,0004.22,0002.60
2022-06-19 11:21:00,,0824.0,5.00,0.00,29.8,28.9,00.0,38.6,31.7,22.7,0000.0,0009.69,0004.25,0002.63
2022-06-19 11:22:00,,0824.0,5.01,0.00,29.8,28.9,00.0,38.6,31.8,22.7,0000.0,0009.50,0004.24,0002.61
2022-06-19 11:23:00,,0824.0,5.00,0.00,29.8,28.9,00.0,38.6,31.7,22.7,0000.0,0009.57,0004.26,0002.60
2022-06-19 11:24:00,,0824.0,5.01,0.00,29.8,28.3,00.0,38.5,31.6,22.7,0000.0,0009.61,0004.25,0002.59
2022-06-19 11:25:00,,0823.9,5.00,0.00,29.7,27.6,00.0,38.5,31.4,22.7,0000.0,0009.72,0004.21,0002.58
2022-06-19 11:26:00,,0823.9,4.99,0.00,29.7,27.4,00.0,38.5,31.4,22.7,0000.0,0009.56,0004.11,0002.55
2022-06-19 11:27:00,,0823.9,5.01,0.00,29.6,27.5,00.0,38.4,31.3,22.8,0000.0,0009.23,0004.10,0002.55
2022-06-19 11:28:00,,0823.8,5.01,0.00,29.6,27.6,00.0,38.4,31.3,22.9,0000.0,0009.23,0004.09,0002.55
2022-06-19 11:29:00,,0823.8,4.99,0.00,29.5,27.7,00.0,38.4,31.3,22.9,0000.0,0009.16,0004.05,0002.54
2022-06-19 11:30:00,,0823.8,4.99,0.00,29.5,27.8,00.0,38.4,31.3,23.1,0000.0,0009.12,0004.06,0002.51
2022-06-19 11:31:00,,0823.8,5.00,0.00,29.5,27.9,00.0,38.4,31.4,23.1,0000.0,0009.05,0004.05,0002.48
2022-06-19 11:32:00,,0823.9,5.01,0.00,29.5,28.0,00.0,38.4,31.4,23.1,0000.0,0008.91,0004.01,0002.44
2022-06-19 11:33:00,,0823.8,5.00,0.00,29.5,28.2,00.0,38.4,31.4,23.2,0000.0,0009.38,0003.97,0002.44
2022-06-19 11:34:00,,0823.8,5.01,0.00,29.5,28.2,00.0,38.4,31.4,23.1,0000.0,0009.44,0003.86,0002.41
2022-06-19 11:35:00,,0823.8,5.00,0.00,29.6,28.3,00.0,38.4,31.4,23.1,0000.0,0009.27,0003.80,0002.38
2022-06-19 11:36:00,,0823.9,5.00,0.00,29.6,28.4,00.0,38.4,31.5,23.0,0000.0,0008.96,0003.76,0002.35
2022-06-19 11:37:00,,0823.9,5.00,0.00,29.6,28.5,00.0,38.4,31.5,23.0,0000.0,0008.65,0003.72,0002.32
2022-06-19 11:38:00,,0823.9,5.00,0.00,29.6,28.5,00.0,38.4,31.5,23.0,0000.0,0008.43,0003.61,0002.27
2022-06-19 11:39:00,,0823.9,5.00,0.00,29.6,28.6,00.0,38.4,31.5,22.9,0000.0,0008.33,0003.53,0002.23
2022-06-19 11:40:00,,0824.0,5.00,0.00,29.7,28.6,00.0,38.4,31.6,22.9,0000.0,0008.21,0003.50,0002.20
2022-06-19 11:41:00,,0823.9,5.00,0.00,29.7,28.7,00.0,38.5,31.6,22.8,0000.0,0008.17,0003.49,0002.21
2022-06-19 11:42:00,,0823.9,5.00,0.00,29.7,28.7,00.0,38.5,31.7,22.8,0000.0,0008.09,0003.44,0002.19
2022-06-19 11:43:00,,0823.9,5.00,0.00,29.7,28.8,00.0,38.5,31.7,22.8,0000.0,0007.90,0003.36,0002.16
2022-06-19 11:44:00,,0823.9,4.99,0.00,29.7,28.8,00.0,38.5,31.7,22.8,0000.0,0007.28,0003.31,0002.13
2022-06-19 11:45:00,,0823.9,4.99,0.00,29.8,28.8,00.0,38.5,31.7,22.7,0000.0,0007.22,0003.31,0002.11
2022-06-19 11:46:00,,0823.9,5.00,0.00,29.8,28.9,00.0,38.5,31.7,22.7,0000.0,0007.30,0003.30,0002.10
2022-06-19 11:47:00,,0823.9,5.00,0.00,29.8,28.9,00.0,38.6,31.8,22.6,0000.0,0007.06,0003.26,0002.07
2022-06-19 11:48:00,,0823.9,5.00,0.00,29.8,28.9,00.0,38.6,31.7,22.6,0000.0,0007.09,0003.24,0002.08
2022-06-19 11:49:00,,0823.9,5.00,0.00,29.9,29.0,00.0,38.6,31.8,22.6,0000.0,0007.25,0003.27,0002.07
2022-06-19 11:50:00,,0823.8,5.01,0.00,29.8,28.4,00.0,38.6,31.6,22.6,0000.0,0007.13,0003.30,0002.07
2022-06-19 11:51:00,,0823.8,4.99,0.00,29.8,27.7,00.0,38.5,31.4,22.6,0000.0,0007.18,0003.29,0002.07
2022-06-19 11:52:00,,0823.8,5.01,0.00,29.7,27.5,00.0,38.5,31.4,22.7,0000.0,0006.95,0003.23,0002.03
2022-06-19 11:53:00,,0823.8,5.00,0.00,29.6,27.5,00.0,38.5,31.3,22.9,0000.0,0006.87,0003.21,0002.02
2022-06-19 11:54:00,,0823.8,5.00,0.00,29.6,27.5,00.0,38.5,31.3,22.9,0000.0,0006.90,0003.20,0002.02
2022-06-19 11:55:00,,0823.8,4.99,0.00,29.6,27.7,00.0,38.4,31.3,23.0,0000.0,0006.60,0003.19,0002.01
2022-06-19 11:56:00,,0823.8,5.00,0.00,29.6,27.8,00.0,38.4,31.3,23.1,0000.0,0006.02,0003.19,0002.01
2022-06-19 11:57:00,,0823.8,5.00,0.00,29.6,27.9,00.0,38.4,31.4,23.2,0000.0,0005.90,0003.19,0002.01
2022-06-19 11:58:00,,0823.8,5.00,0.00,29.5,28.0,00.0,38.4,31.4,23.3,0000.0,0005.81,0003.17,0002.01
2022-06-19 11:59:00,,0823.8,4.99,0.00,29.6,28.1,00.0,38.4,31.4,23.4,0000.0,0005.61,0003.13,0002.00
